{"data":{"norad_id":60069,"epoch":"2026-05-25T01:41:58.721856Z","epoch_age_seconds":59047,"freshness":"FRESH","line1":"1 60069U 24113L   26145.07081854  .00000954  00000+0  12728-4 0  9994","line2":"2 60069  53.1598 174.9791 0001041  71.4367 288.6764 15.69719846111556","mean_motion":15.69719846,"eccentricity":0.0001041,"inclination_deg":53.1598,"raan_deg":174.9791,"arg_perigee_deg":71.4367,"mean_anomaly_deg":288.6764,"bstar":1.2728e-5,"rev_number":11155,"period_min":91.736114802233,"perigee_km":358.99716640054,"apogee_km":360.39998376727,"semimajor_km":6737.8355750839,"source":"CELESTRAK","updated_at":"2026-05-25T13:38:19.158727Z"}}